Location: Unspecified
(53.9930°N, 0.0000°E)
Time: 22:38:42
(UTC+00:00)

NOAA 16 DEB - Visible Passes

Search period start: 04 April 2026 00:00
Search period end: 14 April 2026 00:00
Orbit: 805 x 891 km, 98.7° (Epoch: 29 March)

Date Brightness Start Highest point End Pass type
(mag) Time Alt. Az. Time Alt. Az. Time Alt. Az.
4 Apr ? 19:36:00 10° WSW 19:39:18 16° W 19:42:35 10° NW visible
5 Apr ? 19:22:35 10° SW 19:26:32 19° W 19:30:28 10° NW visible
11 Apr ? 19:49:57 10° WSW 19:52:07 12° W 19:54:16 10° WNW visible
12 Apr ? 19:36:07 10° WSW 19:39:17 15° W 19:42:25 10° NW visible
